Location: Ladysmith
(45.4630°N, 91.1040°W)
Time: 01:48:17
(UTC-05:00)

Amateur Radio Satellites - All Passes

Search period start: 25 July 2017 01:18
Search period end: 26 July 2017 01:18
Location: Ladysmith, 45.4630°N, 91.1040°W

Satellite Date Start Highest point End Downlink Frequencies (MHz)
Time Altitude Azimuth
Tancredo 1 25 Jul 01:20:33 01:23:18 35° 17° (NNE) 01:26:05 437.200
DUCHIFAT 1 25 Jul 01:22:43 01:26:55 80° 285° (WNW) 01:31:04 145.980
50 SAT 25 Jul 01:23:03 01:26:25 66° 258° (WSW) 01:29:50 437.505
POLYITAN 1 25 Jul 01:24:54 01:29:04 61° 287° (WNW) 01:33:11 437.675
FO-29 25 Jul 01:28:27 01:30:31 11° 316° (NW) 01:32:32 435.910
UKube-1 25 Jul 01:31:45 01:36:01 66° 73° (ENE) 01:40:20 .
O/OREOS (USA 219) 25 Jul 01:32:02 01:36:32 88° 247° (WSW) 01:41:03 437.305
SPROUT 25 Jul 01:36:20 01:39:42 22° 267° (W) 01:43:06 437.525
nSIGHT-1 25 Jul 01:36:25 01:39:20 30° 11° (NNE) 01:42:16 .
QB50P2 25 Jul 01:38:06 01:42:04 40° 290° (WNW) 01:46:00 145.880/145.840
ITUPSAT 1 25 Jul 01:39:42 01:41:07 11° 56° (NE) 01:42:33 437.325
EO-79 25 Jul 01:50:21 01:54:10 33° 291° (WNW) 01:57:56 145.935-145.965
NANOSAT C BR1 25 Jul 01:50:28 01:54:20 36° 291° (WNW) 01:58:10 145.865
BUGSAT 1 25 Jul 01:52:26 01:56:32 63° 102° (ESE) 02:00:33 437.445
Oscar 19 25 Jul 02:03:56 02:08:39 35° 97° (E) 02:13:21 437.125/150
DX 1 25 Jul 02:25:39 02:29:13 24° 266° (W) 02:32:47 434.975-435.025
MOZHAYETS 4 25 Jul 02:26:55 02:30:19 21° 64° (ENE) 02:33:44
Gurwin Techsat 1B 25 Jul 02:28:17 02:33:14 38° 97° (E) 02:38:08 435.225
ISS 25 Jul 02:30:22 02:33:34 50° 22° (NNE) 02:36:46 437.550
Tancredo 1 25 Jul 02:55:56 02:58:46 43° 216° (SW) 03:01:35 437.200
BEESAT 25 Jul 03:00:19 03:05:01 60° 72° (ENE) 03:09:44 436.000
CUBESAT XI-V 25 Jul 03:03:43 03:04:43 11° 57° (ENE) 03:05:44 437.345
RS-15 25 Jul 03:06:28 03:16:39 35° 255° (WSW) 03:26:27 29.354- 29.394
UKube-1 25 Jul 03:10:30 03:12:30 13° 270° (W) 03:14:28 .
nSIGHT-1 25 Jul 03:12:46 03:16:00 81° 210° (SSW) 03:19:13 .
ITUPSAT 1 25 Jul 03:13:21 03:18:08 78° 74° (ENE) 03:22:57 437.325
BUGSAT 1 25 Jul 03:29:17 03:31:23 14° 299° (WNW) 03:33:27 437.445
Oscar 19 25 Jul 03:43:19 03:47:55 33° 294° (WNW) 03:52:31 437.125/150
ITAMSAT 1 25 Jul 03:55:15 03:59:46 29° 95° (E) 04:04:13 435.822/435.867
MOZHAYETS 4 25 Jul 04:02:45 04:07:10 47° 261° (W) 04:11:35
YUBILEINY 25 Jul 04:03:21 04:07:20 13° 51° (NE) 04:11:17 435.215
ISS 25 Jul 04:07:02 04:09:55 29° 220° (SW) 04:12:48 437.550
Gurwin Techsat 1B 25 Jul 04:08:24 04:13:05 32° 295° (WNW) 04:17:45 435.225
AO-7 25 Jul 04:26:42 04:34:54 55° 102° (ESE) 04:43:01 .
CUBESAT XI-V 25 Jul 04:36:42 04:41:18 80° 74° (ENE) 04:45:55 437.345
BEESAT 25 Jul 04:40:08 04:43:11 17° 269° (W) 04:46:14 436.000
KKS-1 25 Jul 04:44:18 04:48:41 57° 72° (ENE) 04:53:06 437.445
nSIGHT-1 25 Jul 04:50:32 04:51:55 12° 227° (SW) 04:53:19 .
ITUPSAT 1 25 Jul 04:54:24 04:56:32 13° 271° (W) 04:58:40 437.325
STARS 25 Jul 05:14:22 05:18:39 50° 71° (ENE) 05:22:57 437.465
PCSat 25 Jul 05:16:59 05:22:06 45° 114° (ESE) 05:27:15 145.827
ITAMSAT 1 25 Jul 05:34:28 05:39:19 40° 293° (WNW) 05:44:08 435.822/435.867
SO-50 25 Jul 05:39:35 05:41:14 12° 108° (ESE) 05:42:54 436.795
STRAND 1 25 Jul 05:50:10 05:51:47 11° 54° (NE) 05:53:25 437.568
YUBILEINY 25 Jul 05:57:46 06:06:26 59° 76° (ENE) 06:14:59 435.215
DOVE 4 25 Jul 06:11:02 06:16:05 43° 97° (E) 06:20:57 437.250
LilacSat-2 25 Jul 06:13:37 06:15:50 15° 91° (E) 06:18:01 437.200
KAITUO 1B 25 Jul 06:14:10 06:14:33 10° 89° (E) 06:14:57 145.475/437.950
CUBESAT XI-V 25 Jul 06:17:43 06:19:15 11° 273° (W) 06:20:48 437.345
AO-7 25 Jul 06:19:50 06:27:25 40° 303° (WNW) 06:34:58 .
KKS-1 25 Jul 06:22:50 06:25:36 16° 269° (W) 06:28:21 437.445
XW-2F 25 Jul 06:27:44 06:30:28 19° 93° (E) 06:33:11 145.980 - 146.000
STARS 25 Jul 06:52:16 06:55:16 18° 268° (W) 06:58:16 437.465
XW-2D 25 Jul 06:55:49 06:59:26 43° 99° (E) 07:03:02 145.860 - 145.880
PCSat 25 Jul 07:00:43 07:05:38 34° 314° (NW) 07:10:34 145.827
XW-2B 25 Jul 07:05:49 07:09:32 55° 100° (E) 07:13:13 145.730 - 145.750
SO-50 25 Jul 07:16:29 07:21:01 88° 302° (WNW) 07:25:34 436.795
CUTE-I 25 Jul 07:21:29 07:26:50 63° 102° (ESE) 07:32:07 437.470
XW-2C 25 Jul 07:23:08 07:26:55 88° 280° (W) 07:30:41 145.795 - 145.815
STRAND 1 25 Jul 07:24:55 07:30:03 72° 73° (ENE) 07:35:12 437.568
HO-68 25 Jul 07:27:51 07:33:45 27° 93° (E) 07:39:36 435.675
NUDT-PHONESAT 25 Jul 07:30:48 07:34:29 85° 103° (ESE) 07:38:10 437.300
CUTE 1.7 + AOD 2 25 Jul 07:44:31 07:48:09 27° 95° (E) 07:51:46 437.475
KAITUO 1B 25 Jul 07:45:16 07:48:57 62° 285° (WNW) 07:52:37 145.475/437.950
LilacSat-2 25 Jul 07:46:43 07:50:20 43° 288° (WNW) 07:53:56 437.200
DOVE 4 25 Jul 07:49:04 07:53:31 28° 295° (WNW) 07:57:52 437.250
YUBILEINY 25 Jul 07:55:14 08:02:45 34° 277° (W) 08:10:14 435.215
SEEDS 25 Jul 07:56:48 08:00:12 23° 94° (E) 08:03:36 437.485
XW-2F 25 Jul 08:01:17 08:04:40 33° 290° (WNW) 08:08:03 145.980 - 146.000
FO-29 25 Jul 08:09:25 08:15:27 26° 56° (NE) 08:21:30 435.910
AO-7 25 Jul 08:15:38 08:17:53 11° 326° (NW) 08:20:07 .
UWE-3 25 Jul 08:22:47 08:25:59 21° 93° (E) 08:29:07 435.000/436.395/437.385
XW-2D 25 Jul 08:30:59 08:33:17 16° 296° (WNW) 08:35:35 145.860 - 145.880
ZACube-1 25 Jul 08:36:43 08:39:21 16° 91° (E) 08:41:59 437.345
AAUSAT CUBESAT 2 25 Jul 08:39:52 08:43:37 31° 96° (E) 08:47:21 437.432
XW-2B 25 Jul 08:41:31 08:43:17 13° 297° (WNW) 08:45:02 145.730 - 145.750
PRISM 25 Jul 08:45:16 08:45:59 10° 58° (ENE) 08:46:44 437.425
XW-2A 25 Jul 08:47:24 08:50:46 87° 103° (ESE) 08:54:05 145.665 - 145.685
UNISAT 6 25 Jul 08:48:07 08:50:48 15° 61° (ENE) 08:53:27 437.425
PCSat 25 Jul 08:49:56 08:50:47 10° 337° (NNW) 08:51:38 145.827
SO-50 25 Jul 08:59:04 09:02:07 18° 326° (NW) 09:05:12 436.795
CUBEBUG 2 25 Jul 09:00:37 09:04:55 90° 40° (NE) 09:09:06 437.445
Oscar 11 25 Jul 09:02:09 09:05:31 22° 93° (E) 09:08:52 .
CUTE-I 25 Jul 09:02:28 09:06:24 21° 300° (WNW) 09:10:18 437.470
STRAND 1 25 Jul 09:06:42 09:09:45 16° 271° (W) 09:12:49 437.568
HO-68 25 Jul 09:14:53 09:21:58 65° 292° (WNW) 09:29:00 435.675
AO-73 25 Jul 09:15:56 09:19:49 37° 97° (E) 09:23:39 145.935
CUTE 1.7 + AOD 2 25 Jul 09:20:15 09:23:58 30° 292° (WNW) 09:27:40 437.475
TIGRISAT 25 Jul 09:30:31 09:34:42 34° 68° (ENE) 09:38:49 435.000
SEEDS 25 Jul 09:32:07 09:35:56 34° 291° (WNW) 09:39:46 437.485
M-CUBED/EXP-1 PRIME 25 Jul 09:38:28 09:41:35 25° 60° (ENE) 09:44:54 437.505
DELFI C3 25 Jul 09:42:08 09:44:22 14° 90° (E) 09:46:36 145.870
FO-29 25 Jul 09:51:52 09:59:33 85° 256° (WSW) 10:07:30 435.910
UWE-3 25 Jul 09:58:42 10:02:34 36° 290° (WNW) 10:06:23 435.000/436.395/437.385
EO-88 25 Jul 10:06:44 10:08:59 15° 92° (E) 10:11:13 145.990 - 145.960
ZACube-1 25 Jul 10:11:55 10:15:55 46° 288° (WNW) 10:19:52 437.345
AAUSAT CUBESAT 2 25 Jul 10:15:30 10:18:57 25° 293° (WNW) 10:22:23 437.432
PRISM 25 Jul 10:16:29 10:20:34 88° 250° (WSW) 10:24:44 437.425
UNISAT 6 25 Jul 10:22:21 10:26:59 69° 258° (WSW) 10:31:34 437.425
Oscar 11 25 Jul 10:37:46 10:41:46 38° 290° (WNW) 10:45:45 .
CUBEBUG 2 25 Jul 10:40:04 10:40:48 10° 302° (WNW) 10:41:33 437.445
DUCHIFAT 1 25 Jul 10:43:53 10:45:14 11° 59° (ENE) 10:46:34 145.980
POLYITAN 1 25 Jul 10:45:34 10:47:56 15° 61° (ENE) 10:50:18 437.675
AO-73 25 Jul 10:52:43 10:55:49 21° 295° (WNW) 10:58:54 145.935
QB50P2 25 Jul 10:57:40 11:00:50 21° 64° (ENE) 11:04:01 145.880/145.840
HO-68 25 Jul 11:04:35 11:08:22 15° 313° (NW) 11:12:09 435.675
TIGRISAT 25 Jul 11:07:26 11:11:24 27° 265° (W) 11:15:19 435.000
EO-79 25 Jul 11:09:17 11:12:45 24° 66° (ENE) 11:16:12 145.935-145.965
NANOSAT C BR1 25 Jul 11:09:20 11:12:38 22° 65° (ENE) 11:15:57 145.865
M-CUBED/EXP-1 PRIME 25 Jul 11:12:43 11:15:56 28° 260° (W) 11:19:22 437.505
DELFI C3 25 Jul 11:15:32 11:19:26 50° 287° (WNW) 11:23:19 145.870
AIST 2D 25 Jul 11:28:51 11:32:20 81° 77° (ENE) 11:35:50 435.315
EO-88 25 Jul 11:39:26 11:42:49 38° 289° (WNW) 11:46:12 145.990 - 145.960
FO-29 25 Jul 11:40:27 11:45:36 19° 275° (W) 11:50:52 435.910
LO-87 25 Jul 11:42:54 11:46:05 28° 96° (E) 11:49:14 145.935 - 145.965
ESTCUBE 1 25 Jul 11:46:04 11:49:36 22° 93° (E) 11:53:08 437.505/2401.250
NO-84 25 Jul 11:53:26 11:56:29 70° 141° (SE) 11:59:48 435.350 FM
Gurwin Techsat 1B 25 Jul 12:15:36 12:17:40 12° 54° (NE) 12:19:43 435.225
DUCHIFAT 1 25 Jul 12:15:59 12:20:15 84° 258° (WSW) 12:24:30 145.980
POLYITAN 1 25 Jul 12:18:59 12:23:13 63° 258° (WSW) 12:27:28 437.675
PCSat 25 Jul 12:20:06 12:23:11 15° 31° (NNE) 12:26:15 145.827
VELOX 1 25 Jul 12:31:17 12:33:48 15° 90° (E) 12:36:18 145.980
QB50P2 25 Jul 12:32:19 12:36:22 41° 262° (W) 12:40:25 145.880/145.840
BUGSAT 1 25 Jul 12:43:35 12:47:45 58° 72° (ENE) 12:51:54 437.445
NANOSAT C BR1 25 Jul 12:44:11 12:48:08 37° 262° (W) 12:52:07 145.865
EO-79 25 Jul 12:44:27 12:48:20 34° 263° (W) 12:52:15 145.935-145.965
AO-85 25 Jul 12:49:37 12:53:18 37° 118° (ESE) 12:56:56 145.980
LO-87 25 Jul 13:16:38 13:19:22 20° 293° (WNW) 13:22:04 145.935 - 145.965
SPROUT 25 Jul 13:18:31 13:22:42 52° 100° (E) 13:26:51 437.525
ESTCUBE 1 25 Jul 13:22:19 13:26:33 41° 291° (WNW) 13:30:48 437.505/2401.250
Oscar 19 25 Jul 13:22:47 13:27:49 63° 72° (ENE) 13:32:54 437.125/150
BEESAT 3 25 Jul 13:25:45 13:29:46 88° 122° (ESE) 13:33:49 437.485
NO-84 25 Jul 13:31:30 13:34:15 24° 342° (NNW) 13:37:11 435.350 FM
AO-7 25 Jul 13:38:09 13:44:23 24° 48° (NE) 13:50:38 .
Gurwin Techsat 1B 25 Jul 13:51:23 13:56:41 74° 73° (ENE) 14:02:01 435.225
PCSat 25 Jul 14:02:23 14:07:46 59° 54° (NE) 14:13:06 145.827
SO-50 25 Jul 14:05:42 14:09:29 25° 40° (NE) 14:13:17 436.795
VELOX 1 25 Jul 14:06:13 14:10:38 61° 288° (WNW) 14:15:02 145.980
BEESAT 2 25 Jul 14:06:23 14:10:22 82° 124° (SE) 14:14:27 435.950
DX 1 25 Jul 14:10:29 14:14:45 47° 99° (E) 14:18:59 434.975-435.025
50 SAT 25 Jul 14:15:18 14:18:46 87° 108° (ESE) 14:22:11 437.505
BUGSAT 1 25 Jul 14:21:10 14:23:27 14° 270° (W) 14:25:44 437.445
AO-85 25 Jul 14:30:26 14:33:45 25° 317° (NW) 14:37:05 145.980
UKube-1 25 Jul 14:52:15 14:56:37 88° 99° (E) 15:00:57 .
SPROUT 25 Jul 14:55:25 14:58:13 17° 297° (WNW) 15:00:59 437.525
BEESAT 25 Jul 15:00:04 15:02:04 12° 88° (E) 15:04:04 436.000
Oscar 19 25 Jul 15:04:11 15:07:36 18° 270° (W) 15:11:01 437.125/150
BEESAT 3 25 Jul 15:05:26 15:07:55 16° 325° (NW) 15:10:25 437.485
NO-84 25 Jul 15:10:11 15:12:39 18° 4° (N) 15:15:15 435.350 FM
ITUPSAT 1 25 Jul 15:12:44 15:15:46 17° 91° (E) 15:18:46 437.325
ITAMSAT 1 25 Jul 15:15:04 15:20:10 56° 70° (ENE) 15:25:17 435.822/435.867
RS-15 25 Jul 15:18:51 15:29:39 39° 106° (ESE) 15:40:33 29.354- 29.394
AO-7 25 Jul 15:27:42 15:36:05 86° 69° (ENE) 15:44:31 .
Gurwin Techsat 1B 25 Jul 15:34:01 15:37:12 16° 271° (W) 15:40:25 435.225
SO-50 25 Jul 15:45:47 15:50:13 53° 239° (WSW) 15:54:40 436.795
BEESAT 2 25 Jul 15:46:03 15:48:39 16° 324° (NW) 15:51:19 435.950
O/OREOS (USA 219) 25 Jul 15:46:16 15:50:44 72° 111° (ESE) 15:55:12 437.305
PCSat 25 Jul 15:46:33 15:50:44 23° 253° (WSW) 15:54:54 145.827
DX 1 25 Jul 15:47:27 15:50:36 20° 297° (WNW) 15:53:44 434.975-435.025
MOZHAYETS 4 25 Jul 15:55:23 15:59:32 33° 96° (E) 16:03:38
UKube-1 25 Jul 16:30:34 16:31:57 11° 302° (WNW) 16:33:21 .
CUBESAT XI-V 25 Jul 16:31:54 16:34:59 17° 91° (E) 16:38:03 437.345
BEESAT 25 Jul 16:35:39 16:40:25 79° 286° (WNW) 16:45:10 436.000
NO-84 25 Jul 16:47:36 16:50:57 32° 24° (NNE) 16:54:33 435.350 FM
ITUPSAT 1 25 Jul 16:49:17 16:53:59 60° 288° (WNW) 16:58:39 437.325
ITAMSAT 1 25 Jul 16:56:04 16:59:58 21° 268° (W) 17:03:53 435.822/435.867
LilacSat-2 25 Jul 16:59:00 17:00:07 11° 61° (ENE) 17:01:13 437.200
CUTE-I 25 Jul 17:07:34 17:11:22 20° 59° (ENE) 17:15:10 437.470
XW-2F 25 Jul 17:11:37 17:13:31 14° 63° (ENE) 17:15:25 145.980 - 146.000
YUBILEINY 25 Jul 17:11:39 17:14:41 12° 70° (ENE) 17:17:43 435.215
DOVE 4 25 Jul 17:17:54 17:22:40 52° 71° (ENE) 17:27:43 437.250
AO-7 25 Jul 17:23:41 17:29:49 22° 269° (W) 17:36:00 .
O/OREOS (USA 219) 25 Jul 17:27:52 17:30:40 16° 311° (NW) 17:33:27 437.305
RS-15 25 Jul 17:29:06 17:41:22 73° 310° (NW) 17:53:46 29.354- 29.394
MOZHAYETS 4 25 Jul 17:32:42 17:36:35 28° 294° (WNW) 17:40:27
XW-2D 25 Jul 17:39:10 17:42:25 29° 69° (ENE) 17:45:41 145.860 - 145.880
XW-2B 25 Jul 17:49:01 17:52:27 35° 71° (ENE) 17:55:54 145.730 - 145.750
HO-68 25 Jul 17:59:21 18:05:08 27° 56° (ENE) 18:10:55 435.675
XW-2C 25 Jul 18:06:06 18:09:48 58° 74° (ENE) 18:13:29 145.795 - 145.815
CUBESAT XI-V 25 Jul 18:08:07 18:12:41 56° 288° (WNW) 18:17:16 437.345
KKS-1 25 Jul 18:09:13 18:13:44 84° 104° (ESE) 18:18:12 437.445
NUDT-PHONESAT 25 Jul 18:11:44 18:15:18 49° 73° (ENE) 18:18:52 437.300
BEESAT 25 Jul 18:15:58 18:17:23 11° 304° (NW) 18:18:47 436.000
NO-84 25 Jul 18:24:51 18:28:37 56° 221° (SW) 18:32:39 435.350 FM
CUBEBUG 2 25 Jul 18:26:39 18:28:38 13° 60° (ENE) 18:30:36 437.445
KAITUO 1B 25 Jul 18:26:50 18:30:31 79° 76° (ENE) 18:34:13 145.475/437.950
LilacSat-2 25 Jul 18:30:07 18:33:51 67° 259° (W) 18:37:37 437.200
STARS 25 Jul 18:37:26 18:41:51 71° 102° (ESE) 18:46:13 437.465
CUTE 1.7 + AOD 2 25 Jul 18:39:19 18:42:45 25° 67° (ENE) 18:46:13 437.475
XW-2F 25 Jul 18:43:36 18:47:14 50° 260° (W) 18:50:53 145.980 - 146.000
CUTE-I 25 Jul 18:45:32 18:50:53 67° 258° (WSW) 18:56:16 437.470
SEEDS 25 Jul 18:50:41 18:53:52 22° 66° (ENE) 18:57:04 437.485
DOVE 4 25 Jul 18:56:56 19:00:40 21° 270° (W) 19:04:34 437.250
YUBILEINY 25 Jul 19:00:54 19:09:32 63° 92° (E) 19:18:12 435.215
XW-2D 25 Jul 19:13:41 19:16:36 22° 266° (W) 19:19:34 145.860 - 145.880
XW-2A 25 Jul 19:20:28 19:23:37 37° 72° (ENE) 19:26:47 145.665 - 145.685
UWE-3 25 Jul 19:21:27 19:25:07 25° 66° (ENE) 19:28:43 435.000/436.395/437.385
XW-2B 25 Jul 19:24:12 19:26:46 17° 268° (W) 19:29:21 145.730 - 145.750
Tancredo 1 25 Jul 19:28:09 19:28:41 10° 133° (SE) 19:29:12 437.200
AAUSAT CUBESAT 2 25 Jul 19:32:02 19:35:30 27° 68° (ENE) 19:39:02 437.432
STRAND 1 25 Jul 19:34:02 19:37:48 20° 92° (E) 19:41:32 437.568
ZACube-1 25 Jul 19:34:25 19:37:31 19° 64° (ENE) 19:40:35 437.345
AO-85 25 Jul 19:38:50 19:40:45 13° 32° (NNE) 19:42:41 145.980
XW-2C 25 Jul 19:43:16 19:44:21 11° 271° (W) 19:45:26 145.795 - 145.815
HO-68 25 Jul 19:45:07 19:52:17 71° 256° (WSW) 19:59:28 435.675
RS-15 25 Jul 19:45:27 19:56:27 35° 340° (NNW) 20:07:21 29.354- 29.394
KKS-1 25 Jul 19:47:44 19:49:38 13° 302° (WNW) 19:51:30 437.445
NUDT-PHONESAT 25 Jul 19:47:54 19:49:29 12° 270° (W) 19:51:04 437.300
Oscar 11 25 Jul 19:59:04 20:02:26 23° 65° (ENE) 20:05:48 .
CUBEBUG 2 25 Jul 19:59:54 20:04:36 87° 257° (WSW) 20:09:12 437.445
BEESAT 3 25 Jul 20:03:52 20:06:30 17° 36° (NE) 20:09:07 437.485
AO-73 25 Jul 20:13:01 20:17:08 40° 71° (ENE) 20:21:11 145.935
CUTE 1.7 + AOD 2 25 Jul 20:14:44 20:18:28 31° 264° (W) 20:22:15 437.475
STARS 25 Jul 20:15:19 20:17:38 14° 300° (WNW) 20:19:55 437.465
SEEDS 25 Jul 20:25:30 20:29:21 37° 263° (W) 20:33:14 437.485
DELFI C3 25 Jul 20:30:33 20:32:05 12° 61° (ENE) 20:33:39 145.870
BEESAT 2 25 Jul 20:45:11 20:47:48 16° 36° (NE) 20:50:24 435.950
ISS 25 Jul 20:48:11 20:50:53 24° 139° (SE) 20:53:36 437.550
EO-88 25 Jul 20:48:20 20:49:01 10° 61° (ENE) 20:49:44 145.990 - 145.960
XW-2A 25 Jul 20:54:49 20:56:32 13° 268° (W) 20:58:16 145.665 - 145.685
UWE-3 25 Jul 20:57:09 21:01:23 37° 263° (W) 21:05:33 435.000/436.395/437.385
YUBILEINY 25 Jul 20:59:10 21:06:54 33° 294° (WNW) 21:14:42 435.215
Tancredo 1 25 Jul 21:00:40 21:03:36 78° 148° (SSE) 21:06:33 437.200
FO-29 25 Jul 21:02:51 21:06:06 14° 81° (E) 21:09:11 435.910
AAUSAT CUBESAT 2 25 Jul 21:07:23 21:10:54 28° 265° (W) 21:14:28 437.432
ZACube-1 25 Jul 21:09:12 21:13:29 48° 261° (W) 21:17:43 437.345
STRAND 1 25 Jul 21:12:19 21:17:19 55° 289° (WNW) 21:22:16 437.568
AO-85 25 Jul 21:17:44 21:21:52 65° 52° (NE) 21:26:18 145.980
nSIGHT-1 25 Jul 21:29:07 21:32:18 57° 146° (SE) 21:35:29 .
Oscar 11 25 Jul 21:34:22 21:38:21 37° 263° (W) 21:42:23 .
HO-68 25 Jul 21:38:21 21:41:15 13° 275° (W) 21:44:10 435.675
BEESAT 3 25 Jul 21:40:34 21:44:36 79° 236° (WSW) 21:48:32 437.485
AO-73 25 Jul 21:50:08 21:53:30 21° 267° (W) 21:56:49 145.935
PRISM 25 Jul 21:57:57 21:59:00 11° 89° (E) 22:00:03 437.425
DELFI C3 25 Jul 22:02:24 22:06:18 68° 258° (WSW) 22:10:17 145.870
RS-15 25 Jul 22:02:48 22:13:35 33° 15° (NNE) 22:24:01 29.354- 29.394
UNISAT 6 25 Jul 22:12:37 22:15:51 20° 92° (E) 22:19:02 437.425
EO-88 25 Jul 22:18:34 22:22:10 67° 258° (WSW) 22:25:48 145.990 - 145.960
LO-87 25 Jul 22:21:29 22:24:00 18° 65° (ENE) 22:26:31 145.935 - 145.965
BEESAT 2 25 Jul 22:22:01 22:26:07 84° 235° (SW) 22:30:08 435.950
ISS 25 Jul 22:23:58 22:27:11 56° 336° (NNW) 22:30:24 437.550
Tancredo 1 25 Jul 22:36:37 22:39:13 28° 348° (NNW) 22:41:50 437.200
FO-29 25 Jul 22:45:18 22:52:33 77° 102° (ESE) 22:58:54 435.910
ESTCUBE 1 25 Jul 22:47:35 22:51:19 27° 66° (ENE) 22:55:04 437.505/2401.250
M-CUBED/EXP-1 PRIME 25 Jul 22:48:48 22:51:43 16° 96° (E) 22:54:39 437.505
TIGRISAT 25 Jul 22:55:57 23:00:12 52° 100° (E) 23:04:20 435.000
AO-85 25 Jul 22:59:18 23:01:52 16° 248° (WSW) 23:04:31 145.980
nSIGHT-1 25 Jul 23:05:50 23:08:50 34° 345° (NNW) 23:11:50 .
VELOX 1 25 Jul 23:30:28 23:33:30 18° 62° (ENE) 23:36:32 145.980
PRISM 25 Jul 23:30:35 23:34:46 74° 285° (WNW) 23:38:55 437.425
UNISAT 6 25 Jul 23:48:41 23:52:45 40° 290° (WNW) 23:56:44 437.425
LO-87 25 Jul 23:53:50 23:57:11 34° 263° (W) 00:00:33 145.935 - 145.965
DUCHIFAT 1 25 Jul 23:59:25 00:01:19 13° 89° (E) 00:03:14 145.980
ISS 26 Jul 00:01:15 00:04:05 27° 356° (N) 00:06:56 437.550
POLYITAN 1 26 Jul 00:02:27 00:05:18 17° 92° (E) 00:08:07 437.675
Tancredo 1 26 Jul 00:12:39 00:15:11 25° 8° (N) 00:17:44 437.200
SPROUT 26 Jul 00:13:29 00:17:39 51° 72° (ENE) 00:21:51 437.525
QB50P2 26 Jul 00:15:02 00:18:34 26° 95° (E) 00:22:06 145.880/145.840
O/OREOS (USA 219) 26 Jul 00:15:14 00:18:57 25° 54° (NE) 00:22:40 437.305
UKube-1 26 Jul 00:15:42 00:17:18 12° 58° (ENE) 00:18:56 .
RS-15 26 Jul 00:16:51 00:29:02 65° 46° (NE) 00:40:34 29.354- 29.394
M-CUBED/EXP-1 PRIME 26 Jul 00:21:54 00:26:27 64° 292° (WNW) 00:31:04 437.505
ESTCUBE 1 26 Jul 00:23:56 00:27:59 34° 263° (W) 00:32:06 437.505/2401.250
AIST 2D 26 Jul 00:24:39 00:28:09 74° 102° (ESE) 00:31:39 435.315
NANOSAT C BR1 26 Jul 00:26:08 00:29:46 28° 95° (E) 00:33:22 145.865
EO-79 26 Jul 00:26:36 00:30:22 31° 96° (E) 00:34:06 145.935-145.965
FO-29 26 Jul 00:31:14 00:36:44 24° 305° (NW) 00:41:49 435.910
TIGRISAT 26 Jul 00:33:40 00:36:28 17° 298° (WNW) 00:39:14 435.000
nSIGHT-1 26 Jul 00:42:59 00:45:49 27° 5° (N) 00:48:37 .
50 SAT 26 Jul 00:48:29 00:51:41 40° 72° (ENE) 00:54:56 437.505
VELOX 1 26 Jul 01:05:13 01:09:33 52° 260° (W) 01:13:55 145.980
DX 1 26 Jul 01:07:44 01:11:59 54° 71° (ENE) 01:16:16 434.975-435.025
